Location: *
(43.9900°N, 3.4811°E)
Time: 08:04:41
(UTC+00:00)

Cosmos 1680 Rocket - Pass Details

Date: 25 August 2019
Orbit: 760 x 780 km, 74.1° (Epoch: 15 October)

Event Time Altitude Azimuth Distance (km) Brightness Sun altitude
Rises 19:37:19 0° 338° (NNW) 3,244 7.6 -11.3°
Reaches altitude 10° 19:39:42 10° 338° (NNW) 2,311 6.8 -11.7°
Maximum altitude 19:44:57 83° 251° (WSW) 774 3.6 -12.5°
Drops below altitude 10° 19:50:08 10° 164° (SSE) 2,286 5.5 -13.3°
Enters shadow 19:50:24 - 164° (SSE) 2,388 5.6 -13.4°
